DW6030 Weather Reports


Display with metric or nautical units.
time (UTC)temp
F
wind
direction
speed
MPH
gust
MPH
rain 1hr
in
rain 24hr
in
rain mn
in
humidity
%
barometer
mb
20210619040542 63 20 2.0 3.0 0.00 1.62 1.61 92 1008.0
20210619040046 63 16 3.0 7.0 0.00 1.62 1.61 92 1008.2
20210619035544 63 13 3.0 7.0 0.00 1.62 1.61 91 1008.2
20210619035045 63 19 3.0 5.0 0.00 1.62 1.61 90 1008.2
20210619034543 63 18 3.0 5.0 0.00 1.62 1.61 89 1008.0
20210619034044 63 18 4.0 6.0 0.00 1.62 1.61 88 1007.9
20210619033542 64 15 6.0 8.0 0.00 1.62 1.61 87 1007.9
20210619033046 64 10 3.0 7.0 0.00 1.62 1.61 86 1007.9
20210619032545 65 14 3.0 5.0 0.00 1.62 1.61 86 1007.8
20210619032046 65 16 3.0 7.0 0.00 1.62 1.61 86 1007.9
20210619031542 65 16 4.0 7.0 0.00 1.62 1.61 86 1007.9
20210619031044 66 18 3.0 7.0 0.00 1.62 1.61 85 1007.9
20210619030542 66 15 5.0 7.0 0.00 1.62 1.61 85 1007.9
20210619030042 66 12 3.0 6.0 0.00 1.62 1.61 85 1008.0
20210619025544 66 343 3.0 6.0 0.00 1.62 1.61 85 1008.0
20210619025041 66 14 2.0 3.0 0.00 1.62 1.61 86 1008.2
20210619024542 65 11 3.0 5.0 0.00 1.62 1.61 86 1008.2
20210619024045 65 20 2.0 3.0 0.00 1.62 1.61 86 1008.2
20210619023542 65 11 1.0 3.0 0.00 1.62 1.61 86 1008.2
20210619023045 65 19 3.0 5.0 0.00 1.62 1.61 85 1008.3
20210619022544 66 17 2.0 6.0 0.00 1.62 1.61 85 1008.3
20210619022045 66 5 1.0 3.0 0.00 1.62 1.61 84 1008.3
20210619021542 66 21 2.0 3.0 0.00 1.62 1.61 84 1008.4
20210619021044 66 13 1.0 3.0 0.00 1.62 1.61 84 1008.4
20210619020542 67 15 2.0 8.0 0.00 1.62 1.61 85 1008.6
20210619020041 67 16 2.0 3.0 0.00 1.62 1.61 86 1008.7
20210619015544 67 6 2.0 3.0 0.00 1.62 1.61 85 1008.7
20210619015042 67 11 2.0 7.0 0.00 1.62 1.61 83 1008.7
20210619014542 67 10 2.0 3.0 0.00 1.62 1.61 86 1008.7
20210619014044 67 14 2.0 3.0 0.00 1.62 1.61 86 1008.8
20210619013542 67 14 2.0 3.0 0.00 1.62 1.61 86 1008.8
20210619013041 67 16 2.0 5.0 0.00 1.62 1.61 87 1008.9
20210619012544 67 8 2.0 8.0 0.00 1.62 1.61 86 1008.9
20210619012042 66 14 2.0 6.0 0.00 1.62 1.61 87 1008.9
20210619011541 66 27 2.0 5.0 0.00 1.62 1.61 89 1009.0
20210619011044 66 6 1.0 3.0 0.00 1.62 1.61 89 1009.1
20210619010541 66 10 0.0 2.0 0.00 1.62 1.61 90 1009.2
20210619010045 66 11 1.0 2.0 0.00 1.62 1.61 90 1009.3
20210619005544 66 18 2.0 3.0 0.00 1.62 1.61 90 1009.5
20210619005042 65 16 1.0 3.0 0.00 1.62 1.61 90 1009.5
20210619004542 65 18 2.0 3.0 0.00 1.62 1.61 90 1009.5
20210619004044 65 29 2.0 3.0 0.00 1.62 1.61 90 1009.6
20210619003541 65 18 1.0 3.0 0.00 1.62 1.61 91 1009.6
20210619003041 65 29 1.0 3.0 0.00 1.62 1.61 91 1009.7
20210619002544 65 21 1.0 3.0 0.00 1.62 1.61 93 1009.9
20210619002045 65 15 1.0 3.0 0.00 1.62 1.61 92 1010.0
20210619001541 65 13 1.0 2.0 0.00 1.62 1.61 95 1010.0
20210619001043 65 24 0.0 1.0 0.00 1.62 1.61 95 1010.1
20210619000541 64 294 0.0 2.0 0.00 1.62 1.61 95 1010.2
20210619000042 64 11 1.0 5.0 0.00 1.62 1.61 95 1010.3
20210618235543 64 12 2.0 6.0 0.00 1.62 1.61 96 1010.3
20210618235041 64 17 1.0 3.0 0.00 1.62 1.61 96 1010.4
20210618234541 64 16 2.0 3.0 0.00 1.62 1.61 96 1010.5
20210618234041 64 13 2.0 3.0 0.00 1.62 1.61 97 1010.6
20210618233544 64 27 2.0 3.0 0.01 1.62 1.61 97 1010.7
20210618233045 64 17 3.0 5.0 0.01 1.62 1.61 97 1010.7
20210618232544 64 15 3.0 7.0 0.01 1.62 1.61 97 1010.7
20210618232041 64 21 2.0 5.0 0.01 1.62 1.61 97 1010.7
20210618231542 64 14 3.0 5.0 0.01 1.62 1.61 97 1010.7
20210618231042 63 7 2.0 6.0 0.01 1.62 1.61 98 1010.7
20210618230544 63 16 2.0 3.0 0.01 1.62 1.61 98 1010.8
20210618230041 63 10 2.0 3.0 0.01 1.62 1.61 98 1010.9
20210618225541 63 24 2.0 3.0 0.01 1.62 1.61 98 1010.9
20210618225044 63 19 1.0 3.0 0.01 1.62 1.61 98 1010.9
20210618224541 63 22 2.0 3.0 0.01 1.62 1.61 98 1011.0
20210618224041 63 14 2.0 3.0 0.01 1.62 1.61 98 1011.1
20210618223543 63 15 3.0 5.0 0.00 1.61 1.61 98 1011.2
20210618223041 63 17 2.0 3.0 0.00 1.61 1.61 98 1011.1
20210618222544 62 16 1.0 3.0 0.00 1.61 1.61 98 1011.2
20210618222047 62 13 1.0 3.0 0.00 1.61 1.61 98 1011.2
20210618221545 62 15 2.0 3.0 0.00 1.61 1.61 98 1011.1
20210618221041 62 16 2.0 3.0 0.00 1.61 1.61 98 1011.1
20210618220543 61 27 2.0 5.0 0.00 1.61 1.61 98 1011.2
20210618220040 61 2 1.0 3.0 0.00 1.61 1.61 99 1011.2
20210618215544 61 4 2.0 3.0 0.00 1.61 1.61 98 1011.2
20210618215043 61 10 2.0 3.0 0.00 1.61 1.61 99 1011.2
20210618214545 60 17 2.0 3.0 0.00 1.61 1.61 99 1011.2
20210618214041 60 1 2.0 9.0 0.00 1.61 1.61 99 1011.2
20210618213543 60 17 1.0 3.0 0.00 1.61 1.61 99 1011.2
20210618213041 60 15 2.0 5.0 0.00 1.61 1.61 99 1011.2
20210618212541 60 18 3.0 8.0 0.00 1.61 1.61 99 1011.1
20210618212043 59 1 1.0 8.0 0.00 1.61 1.61 99 1011.1
20210618211545 59 350 2.0 5.0 0.00 1.61 1.61 99 1011.0
20210618211041 58 36 1.0 3.0 0.00 1.61 1.61 99 1011.0
20210618210543 58 19 2.0 3.0 0.00 1.61 1.61 99 1011.0
20210618210040 58 6 1.0 3.0 0.00 1.61 1.61 99 1011.0
20210618205540 58 1 2.0 3.0 0.00 1.61 1.61 99 1010.9
20210618205043 58 321 2.0 6.0 0.00 1.61 1.61 98 1010.8
20210618204540 58 15 3.0 7.0 0.00 1.61 1.61 98 1010.7
20210618204041 58 19 3.0 6.0 0.00 1.61 1.61 98 1010.7
20210618203544 58 16 2.0 6.0 0.00 1.61 1.61 98 1010.6
20210618203041 57 15 3.0 6.0 0.00 1.61 1.61 98 1010.6
20210618202541 57 23 1.0 3.0 0.00 1.61 1.61 98 1010.6
20210618202044 57 19 2.0 5.0 0.00 1.61 1.61 98 1010.5
20210618201549 58 10 1.0 3.0 0.00 1.61 1.61 98 1010.4
20210618201040 58 11 3.0 9.0 0.00 1.61 1.61 98 1010.4
20210618200543 58 24 2.0 5.0 0.01 1.61 1.61 98 1010.4
20210618200045 58 6 2.0 3.0 0.01 1.61 1.61 98 1010.3
20210618195541 58 29 3.0 7.0 0.09 1.61 1.61 98 1010.3
20210618195041 58 17 3.0 8.0 0.13 1.61 1.61 98 1010.3
20210618194543 58 18 3.0 8.0 0.15 1.61 1.61 98 1010.3
20210618194041 58 4 3.0 9.0 0.17 1.61 1.61 98 1010.2
20210618193543 58 11 3.0 8.0 0.18 1.61 1.61 98 1010.1
20210618193040 58 16 2.0 7.0 0.29 1.61 1.61 98 1010.0
20210618192540 58 26 3.0 8.0 0.30 1.61 1.61 98 1009.9
20210618192042 58 2 2.0 5.0 0.31 1.61 1.61 98 1009.9
20210618191541 58 22 1.0 7.0 0.34 1.61 1.61 98 1009.8
20210618191044 58 11 3.0 7.0 0.35 1.61 1.61 98 1009.7
20210618190542 58 12 3.0 8.0 0.35 1.61 1.60 98 1009.6
20210618190041 58 12 5.0 12.0 0.36 1.61 1.60 98 1009.5
20210618185540 58 3 2.0 3.0 0.30 1.52 1.51 98 1009.6
20210618185041 58 333 3.0 9.0 0.26 1.48 1.47 98 1009.6
20210618184544 58 7 4.0 8.0 0.24 1.46 1.46 98 1009.2
20210618184044 58 354 2.0 12.0 0.23 1.45 1.44 98 1009.3
20210618183540 58 31 2.0 9.0 0.22 1.43 1.43 98 1009.4
20210618183043 58 310 5.0 9.0 0.11 1.32 1.31 98 1009.3
20210618182540 57 343 2.0 5.0 0.10 1.31 1.31 98 1009.0
20210618182044 57 21 2.0 3.0 0.09 1.30 1.29 98 1009.1
20210618181543 57 340 5.0 9.0 0.08 1.28 1.27 98 1009.0
20210618181043 57 11 5.0 8.0 0.09 1.26 1.25 98 1009.0
20210618180541 57 13 4.0 8.0 0.18 1.25 1.24 98 1008.9
20210618180043 57 15 6.0 12.0 0.19 1.24 1.24 98 1008.8
20210618175541 57 16 7.0 10.0 0.27 1.22 1.21 98 1008.7
20210618175040 57 20 7.0 12.0 0.35 1.22 1.21 98 1008.6
20210618174543 57 18 7.0 12.0 0.42 1.22 1.21 98 1008.7
20210618174043 57 19 9.0 12.0 0.61 1.22 1.21 98 1008.6
20210618173544 57 17 6.0 10.0 0.65 1.21 1.20 98 1008.8
20210618173043 57 21 6.0 9.0 0.69 1.21 1.20 98 1008.8
20210618172540 57 16 7.0 10.0 0.75 1.21 1.20 98 1008.8
20210618172040 57 13 4.0 8.0 0.77 1.21 1.20 98 1009.0
20210618171542 57 17 4.0 9.0 0.76 1.20 1.19 98 1009.1
20210618171040 57 17 4.0 10.0 0.76 1.17 1.17 98 1008.9
20210618170540 57 13 7.0 10.0 0.72 1.07 1.06 98 1009.1
20210618170042 57 19 3.0 8.0 0.80 1.06 1.05 98 1009.0
20210618165541 57 17 4.0 7.0 0.74 0.95 0.94 98 1009.0
20210618165040 57 18 5.0 12.0 0.66 0.87 0.86 98 1009.3
20210618164543 57 6 4.0 8.0 0.62 0.80 0.80 98 1009.4
20210618164040 57 19 7.0 12.0 0.46 0.61 0.61 98 1009.1
20210618163540 57 19 4.0 8.0 0.43 0.56 0.55 98 1009.1
20210618163043 57 17 2.0 8.0 0.41 0.52 0.51 98 1009.2
20210618162540 57 16 7.0 12.0 0.36 0.46 0.46 98 1008.9
20210618162039 57 23 6.0 10.0 0.35 0.44 0.43 98 1008.9
20210618161539 57 13 7.0 12.0 0.35 0.43 0.43 98 1008.9
20210618161043 57 20 3.0 6.0 0.33 0.41 0.40 98 1009.3
20210618160540 57 13 5.0 7.0 0.28 0.35 0.34 98 1009.1
20210618160042 57 14 6.0 17.0 0.20 0.26 0.24 98 1009.1
20210618155539 57 13 8.0 12.0 0.17 0.22 0.20 98 1009.2
20210618155044 57 11 9.0 16.0 0.17 0.21 0.20 98 1009.2
20210618154542 57 10 6.0 15.0 0.14 0.19 0.17 98 1009.2
20210618154040 57 16 7.0 13.0 0.12 0.16 0.14 97 1009.4
20210618153540 57 15 9.0 17.0 0.09 0.13 0.12 97 1009.6
20210618153041 57 6 9.0 14.0 0.08 0.12 0.10 97 1009.6
20210618152540 57 13 9.0 14.0 0.09 0.11 0.09 97 1009.8
20210618152040 57 16 7.0 14.0 0.09 0.10 0.09 97 1009.8
20210618151542 57 22 9.0 16.0 0.08 0.09 0.08 97 1010.0
20210618151039 57 17 7.0 20.0 0.07 0.09 0.07 97 1010.1
20210618150540 57 18 7.0 15.0 0.06 0.08 0.06 97 1010.2
20210618150042 57 16 6.0 15.0 0.05 0.06 0.05 97 1010.4
20210618145539 57 12 6.0 12.0 0.04 0.06 0.04 97 1010.5
20210618145039 57 16 8.0 12.0 0.03 0.05 0.03 97 1010.7
20210618144542 57 13 8.0 15.0 0.03 0.05 0.03 97 1010.6
20210618144043 57 21 7.0 13.0 0.02 0.04 0.02 97 1010.7
20210618143540 57 13 9.0 14.0 0.02 0.04 0.02 97 1010.8
20210618143042 57 14 8.0 13.0 0.02 0.04 0.02 97 1010.8
20210618142539 57 15 7.0 18.0 0.01 0.02 0.01 97 1010.9
20210618142039 57 10 7.0 13.0 0.00 0.02 0.00 97 1010.8
20210618141539 57 17 9.0 13.0 0.00 0.02 0.00 97 1010.9
20210618141039 57 14 8.0 13.0 0.00 0.02 0.00 97 1010.9
20210618140539 57 15 9.0 13.0 0.00 0.02 0.00 96 1011.0
20210618140042 56 18 8.0 13.0 0.00 0.02 0.00 96 1011.0
20210618135540 57 13 6.0 14.0 0.00 0.02 0.00 96 1011.1
20210618135042 56 17 9.0 18.0 0.00 0.02 0.00 96 1011.1
20210618134542 56 10 7.0 12.0 0.00 0.02 0.00 96 1011.2
20210618134040 56 15 7.0 13.0 0.00 0.02 0.00 96 1011.5
20210618133539 56 18 8.0 14.0 0.00 0.02 0.00 96 1011.6
20210618133042 56 18 6.0 12.0 0.00 0.02 0.00 96 1011.7
20210618132543 56 19 6.0 12.0 0.00 0.02 0.00 96 1011.6
20210618132039 56 16 6.0 12.0 0.00 0.02 0.00 97 1011.6
20210618131541 56 8 8.0 12.0 0.00 0.02 0.00 97 1011.7
20210618131040 56 18 7.0 12.0 0.00 0.02 0.00 97 1011.8
20210618130539 56 13 7.0 14.0 0.00 0.02 0.00 97 1011.7
20210618130041 56 14 7.0 14.0 0.00 0.02 0.00 97 1011.7
20210618125542 56 19 7.0 12.0 0.00 0.02 0.00 97 1011.8
20210618125042 56 19 6.0 9.0 0.00 0.02 0.00 97 1011.9
20210618124541 56 15 7.0 12.0 0.00 0.02 0.00 97 1011.9
20210618124039 56 16 7.0 12.0 0.00 0.02 0.00 97 1012.0
20210618123539 56 13 8.0 12.0 0.00 0.02 0.00 97 1012.1
20210618123041 56 15 7.0 13.0 0.00 0.02 0.00 97 1012.1
20210618122538 56 15 6.0 12.0 0.00 0.02 0.00 97 1012.2
20210618122039 56 17 7.0 12.0 0.01 0.02 0.00 97 1012.3
20210618121541 56 17 8.0 12.0 0.01 0.02 0.00 97 1012.4
20210618121039 56 18 7.0 10.0 0.01 0.02 0.00 97 1012.4
20210618120539 56 11 6.0 12.0 0.01 0.02 0.00 97 1012.4
20210618120041 56 14 7.0 10.0 0.01 0.02 0.00 97 1012.5
20210618115538 56 22 6.0 12.0 0.01 0.02 0.02 97 1012.5
20210618115043 56 13 7.0 10.0 0.01 0.02 0.02 97 1012.5
20210618114541 56 16 7.0 14.0 0.01 0.02 0.02 97 1012.5
20210618114043 56 13 7.0 14.0 0.01 0.02 0.02 97 1012.6
20210618113539 55 7 6.0 12.0 0.01 0.02 0.02 97 1012.6
20210618113042 55 17 7.0 14.0 0.01 0.02 0.02 97 1012.7
20210618112542 55 13 8.0 16.0 0.01 0.02 0.02 97 1012.7
20210618112039 55 18 6.0 12.0 0.00 0.01 0.01 97 1012.7
20210618111541 55 14 7.0 12.0 0.00 0.01 0.01 97 1012.8
20210618111039 55 20 7.0 13.0 0.00 0.01 0.01 97 1012.8
20210618110539 55 17 7.0 12.0 0.00 0.01 0.01 97 1012.8
20210618110039 55 14 7.0 12.0 0.00 0.01 0.01 97 1012.8
20210618105542 55 19 7.0 12.0 0.00 0.01 0.01 97 1012.9
20210618105039 55 18 9.0 14.0 0.00 0.01 0.01 97 1013.0
20210618104539 55 16 7.0 10.0 0.00 0.01 0.01 97 1012.9
20210618104041 55 13 6.0 13.0 0.00 0.01 0.01 97 1012.8
20210618103539 55 15 7.0 13.0 0.00 0.01 0.01 97 1013.0
20210618103042 55 15 7.0 15.0 0.00 0.01 0.01 97 1013.1
20210618102541 55 19 7.0 13.0 0.00 0.01 0.01 97 1013.2
20210618102039 55 12 8.0 20.0 0.00 0.01 0.01 97 1013.3
20210618101538 55 23 7.0 14.0 0.00 0.01 0.01 97 1013.3
20210618101039 55 3 6.0 12.0 0.00 0.01 0.01 97 1013.3
20210618100542 54 14 6.0 12.0 0.00 0.01 0.01 97 1013.4
20210618100038 54 14 6.0 10.0 0.00 0.01 0.01 97 1013.4
20210618095541 54 16 6.0 10.0 0.00 0.01 0.01 97 1013.5
20210618095039 54 16 6.0 10.0 0.00 0.01 0.01 97 1013.6
20210618094539 54 15 7.0 13.0 0.00 0.01 0.01 97 1013.6
20210618094040 54 19 6.0 10.0 0.00 0.01 0.01 97 1013.8
20210618093538 54 15 7.0 10.0 0.00 0.01 0.01 97 1013.8
20210618093043 54 16 7.0 10.0 0.00 0.01 0.01 97 1013.8
20210618092541 54 15 8.0 12.0 0.00 0.01 0.01 97 1013.8
20210618092038 54 20 7.0 12.0 0.00 0.01 0.01 97 1013.8
20210618091542 54 14 6.0 9.0 0.00 0.01 0.01 97 1013.8
20210618091040 54 18 6.0 12.0 0.00 0.01 0.01 97 1013.9
20210618090539 54 14 7.0 12.0 0.00 0.01 0.01 97 1014.0
20210618090039 54 14 7.0 12.0 0.00 0.02 0.01 97 1014.0
20210618085541 54 16 7.0 10.0 0.00 0.02 0.01 97 1014.0
20210618085038 54 14 6.0 12.0 0.00 0.02 0.01 97 1014.1
20210618084542 54 18 7.0 12.0 0.00 0.02 0.01 97 1014.1
20210618084038 54 15 7.0 9.0 0.00 0.02 0.01 97 1014.1
20210618083538 54 15 6.0 8.0 0.00 0.02 0.01 97 1014.2
20210618083038 54 17 5.0 9.0 0.00 0.02 0.01 97 1014.2
20210618082540 54 21 5.0 8.0 0.00 0.02 0.01 97 1014.3
20210618082038 54 21 5.0 8.0 0.00 0.02 0.01 96 1014.3
20210618081538 54 16 6.0 8.0 0.00 0.02 0.01 96 1014.3
20210618081039 54 14 7.0 10.0 0.00 0.02 0.01 96 1014.3
20210618080541 54 15 6.0 8.0 0.00 0.02 0.01 96 1014.3
20210618080041 54 18 5.0 9.0 0.00 0.02 0.01 96 1014.2
20210618075541 54 16 5.0 8.0 0.00 0.02 0.01 96 1014.2
20210618075038 54 23 3.0 7.0 0.00 0.02 0.01 96 1014.4
20210618074538 54 22 4.0 8.0 0.00 0.02 0.01 96 1014.4
20210618074038 54 9 4.0 7.0 0.00 0.02 0.01 96 1014.5
20210618073541 54 23 4.0 7.0 0.00 0.02 0.01 96 1014.5
20210618073038 54 19 4.0 7.0 0.00 0.02 0.01 96 1014.5
20210618072542 54 10 3.0 6.0 0.00 0.02 0.01 96 1014.5
20210618072040 54 18 4.0 7.0 0.00 0.02 0.01 96 1014.5
20210618071539 54 9 5.0 7.0 0.00 0.02 0.01 96 1014.6
20210618071038 54 20 5.0 8.0 0.00 0.02 0.01 96 1014.6
20210618070541 54 13 4.0 10.0 0.00 0.02 0.01 96 1014.6
20210618070037 54 12 3.0 9.0 0.00 0.02 0.01 96 1014.6
20210618065538 54 23 3.0 7.0 0.00 0.02 0.01 95 1014.5
20210618065040 54 17 3.0 7.0 0.00 0.02 0.01 95 1014.6
20210618064541 54 18 3.0 5.0 0.00 0.02 0.01 95 1014.6
20210618064038 54 12 3.0 6.0 0.00 0.02 0.01 95 1014.5
20210618063543 54 18 3.0 8.0 0.00 0.02 0.01 95 1014.6
20210618063041 54 19 3.0 5.0 0.00 0.02 0.01 95 1014.6
20210618062538 54 15 3.0 7.0 0.00 0.02 0.01 95 1014.6
20210618062040 54 17 5.0 7.0 0.00 0.02 0.01 95 1014.7
20210618061537 54 17 3.0 7.0 0.00 0.02 0.01 94 1014.7
20210618061038 54 15 3.0 6.0 0.00 0.02 0.01 94 1014.6
20210618060541 54 14 4.0 6.0 0.00 0.02 0.01 94 1014.5
20210618060042 55 16 4.0 7.0 0.00 0.02 0.01 94 1014.5
20210618055538 55 20 3.0 8.0 0.00 0.02 0.01 93 1014.5
20210618055041 55 16 3.0 7.0 0.00 0.02 0.01 93 1014.5
20210618054541 55 18 4.0 7.0 0.00 0.02 0.01 93 1014.4
20210618054038 55 20 3.0 7.0 0.00 0.02 0.01 93 1014.3
20210618053541 55 17 5.0 7.0 0.00 0.02 0.01 92 1014.5
20210618053041 55 21 4.0 7.0 0.00 0.02 0.01 92 1014.5
20210618052540 56 13 5.0 7.0 0.00 0.02 0.01 92 1014.4
20210618052037 56 20 5.0 7.0 0.00 0.02 0.01 92 1014.5
20210618051537 56 19 5.0 6.0 0.00 0.02 0.01 91 1014.5
20210618051038 56 19 4.0 8.0 0.00 0.02 0.01 91 1014.5
20210618050540 57 15 4.0 6.0 0.00 0.02 0.01 90 1014.5
20210618050040 57 10 3.0 6.0 0.00 0.02 0.01 90 1014.3
20210618045541 57 12 3.0 8.0 0.00 0.02 0.01 89 1014.3
20210618045040 57 19 3.0 7.0 0.00 0.02 0.01 89 1014.3
20210618044537 58 9 3.0 5.0 0.00 0.02 0.01 88 1014.3
20210618044038 58 20 3.0 5.0 0.00 0.02 0.01 88 1014.2
20210618043541 58 15 3.0 5.0 0.00 0.02 0.01 88 1014.2
20210618043038 58 18 3.0 6.0 0.00 0.02 0.01 87 1014.3
20210618042537 59 9 3.0 7.0 0.00 0.02 0.01 86 1014.3
20210618042038 59 17 3.0 6.0 0.00 0.02 0.01 86 1014.3
20210618041537 59 18 4.0 8.0 0.00 0.02 0.01 86 1014.4
20210618041037 59 14 3.0 7.0 0.00 0.02 0.01 86 1014.4